Location: Boiro
(42.6475°N, 8.8834°W)
Time: 18:44:24
(UTC+01:00)

Transit 2A - Pass Details

Date: 03 December 2021
Orbit: 591 x 967 km, 66.7° (Epoch: 20 January)

Event Time Altitude Azimuth Distance (km) Brightness Sun altitude
Rises 10:36:41 0° 329° (NNW) 3,662 8.9 14.4°
Reaches altitude 10° 10:39:17 10° 329° (NNW) 2,713 8.3 14.7°
Maximum altitude 10:45:43 88° 61° (ENE) 954 6.8 15.5°
Drops below altitude 10° 10:51:50 10° 150° (SSE) 2,582 11.2 16.2°
Sets 10:54:15 0° 151° (SSE) 3,474 11.2 16.4°
